カタログに戻る

NOAA 16 DEB

運用中SSO
NORAD 41097·DEBRIS·🇺🇸 United States

打ち上げ Sep 21, 2000 から Vandenberg Space Force Base

Loading…

次のパス (今後24時間)

TLE

最新Source: Space-Track

元期: Sep 14, 2026, 08:29 UTC

1 41097U 00055BG  26257.35348778  .00001219  00000-0  80355-3 0  9995
2 41097  98.9140 215.7843 0089321 276.9197  82.1814 14.01753879548521

AllMySatでNOAA 16 DEBをリアルタイム追跡

Download on the App Store